Regional Weather Roundup
Issued by NWS

Home | Current Version | Previous Version | Text Only | Print | Product List | Glossary Off
Versions: 1 2 3 4 5 6 7 8 9 10 11 12 13 14 15 16 17 18 19 20 21 22 23 24 25 26 27

000
ASUS45 KPSR 191110
RWRAZ

ARIZONA HOURLY REGIONAL WEATHER ROUNDUP
NATIONAL WEATHER SERVICE PHOENIX AZ
400 AM MST THU OCT 19 2017

NOTE: FAIR INDICATES FEW OR NO CLOUDS BELOW 12,000 FEET WITH NO
SIGNIFICANT WEATHER AND/OR OBSTRUCTIONS TO VISIBILITY.

AZZ001>003-036-191200-
NORTHWEST ARIZONA

CITY           SKY/WX    TMP DP  RH WIND       PRES   REMARKS
BULLHEAD CITY  PTCLDY    68  25  19 CALM      29.80S
KINGMAN        CLEAR     56  30  37 CALM      29.94F
$$

AZZ004>008-015-016-018-191200-
NORTH CENTRAL ARIZONA

CITY           SKY/WX    TMP DP  RH WIND       PRES   REMARKS
GRAND CANYON   PTCLDY    36  24  62 E3        30.15F
WILLIAMS       PTCLDY    45  30  57 S12       30.15F
PRESCOTT       MOCLDY    56  31  38 CALM      30.05F
FLAGSTAFF      MOCLDY    42  28  57 CALM      30.17F
PAYSON           N/A     61  37  41 CALM      30.08S
PAGE           MOCLDY    58  27  30 VRB3      30.02F
$$

AZZ009>014-017-191200-
NORTHEAST ARIZONA

CITY           SKY/WX    TMP DP  RH WIND       PRES   REMARKS
WINSLOW        MOCLDY    58  29  33 SE3       30.06S
SAINT JOHNS    CLOUDY    60  29  30 CALM      30.12S
WINDOW ROCK    CLOUDY    43  18  36 CALM      30.18F
SHOW LOW       CLOUDY    59  32  36 E5        30.15F
$$

AZZ540-542>544-546-548-191200-
GREATER PHOENIX AREA

CITY           SKY/WX    TMP DP  RH WIND       PRES   REMARKS
PHOENIX        MOCLDY    77  42  28 E7        29.79S
BUCKEYE        MOCLDY    70  36  28 E7        29.80F
LUKE AFB       PTCLDY    73  42  32 NW5       29.79S
DEER VALLEY    MOCLDY    74  37  26 CALM      29.82S
SCOTTSDALE     MOCLDY    75  42  30 CALM      29.84S
MESA-GATEWAY   MOCLDY    72  36  26 E8        29.83S
$$

AZZ539-553-191200-
SOUTHWEST MARICOPA COUNTY AND PINAL COUNTY

CITY           SKY/WX    TMP DP  RH WIND       PRES   REMARKS
CASA GRANDE    NOT AVBL
$$

AZZ503-504-507>509-191200-
SOUTHEAST ARIZONA

CITY           SKY/WX    TMP DP  RH WIND       PRES   REMARKS
TUCSON         PTCLDY    68  36  30 SE10      29.93F
DAVIS-MONTHAN  PTCLDY    68  34  28 SE7       29.92S
NOGALES        CLEAR     58  38  47 NE5       30.01F
SIERRA VISTA   CLEAR     63  34  34 SW8       30.06F
DOUGLAS        CLEAR     59  43  55 SE6       30.03S
SAFFORD        PTCLDY    66  43  43 SE6       29.95S
$$

AZZ532-191200-
SOUTHWEST ARIZONA

CITY           SKY/WX    TMP DP  RH WIND       PRES   REMARKS
YUMA           CLEAR     69  45  41 CALM      29.76F
$$

CAZ041-043-047-048-061-525>527-560>570-191200-
SOUTHERN CALIFORNIA

CITY           SKY/WX    TMP DP  RH WIND       PRES   REMARKS
DOWNTOWN L.A.  CLEAR     65  58  78 CALM      29.88F
L.A. AIRPORT   PTCLDY    65  59  81 NE3       29.89F
SAN DIEGO      CLOUDY    68  61  78 SE5       29.91S
BURBANK        CLEAR     62  48  60 CALM      29.90S
ONTARIO        CLEAR     63  51  65 CALM      29.90S
RIVERSIDE      CLEAR     62  53  72 CALM      29.90S
PALM SPRINGS   CLEAR     73  49  42 W3        29.78F
EL CENTRO NAS  CLEAR     75  33  21 NW8       29.76F
IMPERIAL       CLEAR     78  37  22 NW6       29.74F
BLYTHE         CLEAR     69  30  23 N7        29.76F
NEEDLES        PTCLDY    68  15  13 CALM      29.81F
$$

NVZ020-UTZ003-191200-
SOUTHERN NEVADA-UTAH

CITY           SKY/WX    TMP DP  RH WIND       PRES   REMARKS
LAS VEGAS      MOCLDY    68  20  16 SW3       29.87F
SALT LAKE CITY PTCLDY    45  30  55 SE7       30.00F
$$

NMZ009-TXZ055-191200-
NEW MEXICO-WEST TEXAS

CITY           SKY/WX    TMP DP  RH WIND       PRES   REMARKS
ALBUQUERQUE    CLOUDY    52  26  36 N8        30.13S
EL PASO        CLOUDY    64  53  67 N3        30.05S
$$


........................KEY........................
SKY/WX - SKY CONDITION/WEATHER
TMP    - TEMPERATURE IN FAHRENHEIT
DP     - DEW POINT IN FAHRENHEIT
RH     - RELATIVE HUMIDITY IN PERCENT
WIND   - DIRECTION AND SPEED IN MILES PER HOUR (MPH)
VRB    - VARIABLE WIND DIRECTION
PRES   - MEAN SEA LEVEL PRESSURE IN INCHES OF MERCURY
         F - FALLING PRESSURE   R - RISING PRESSURE
         S - STEADY PRESSURE
VSB    - VISIBILITY IN MILES
HX     - HEAT INDEX IN FAHRENHEIT
WCI    - WIND CHILL INDEX IN FAHRENHEIT
TC     - TEMPERATURE IN CELSIUS WHICH IS ALSO KNOWN AS
         TEMPERATURE IN CENTIGRADE
AFB    - AIR FORCE BASE
         LUKE AFB IS LUKE AIR FORCE BASE
         DAVIS-MONTHAN IS DAVIS-MONTHAN AIR FORCE BASE
NAS    - NAVAL AIR STATION
         EL CENTRO NAS IS EL CENTRO NAVAL AIR STATION
N/A    - NOT AVAILABLE





USA.gov is the U.S. government's official web portal to all federal, state and local government web resources and services.